User: anonymous   Login
Location: Irma
(52.9170°N, 111.2330°W)
Time: 08:29:01
(UTC-06:00)
Language:

deb Chang Zheng 4 - Orbit

View from above orbital plane
View from above orbital plane
View from above satellite
View from above satellite

Ground track
Ground track

The orbit data is extracted from the following two-line orbital elements,

1 20847U 90081K   15115.15840898  .00013430  00000-0  20553-2 0  9993
2 20847 098.5834 299.6336 0019687 040.9499 093.5772 14.73720708290018
Epoch (UTC): 25 April 2015 03:48:06
Eccentricity: 0.0019687
inclination: 98.5834°
perigee height: 635 km
apogee height: 663 km
right ascension of ascending node: 299.6336°
argument of perigee: 40.9499°
revolutions per day: 14.73720708
mean anomaly at epoch: 93.5772°
orbit number at epoch: 29001

The dashed part of the orbit path shows where the satellite is in the earth's shadow,  

DLR